LiveATC.Net - Listen to live air traffic control over the Internet!


ICAO: EIKN  IATA: NOC   Airport: Ireland West Airport Knock
City: Charlestown
Country: Ireland   Continent: Europe
EIKN METAR Weather: EIKN 151830Z 24006KT 190V280 9999 -SHRA SCT044 SCT075 BKN250 20/13 Q1019 NOSIG
EIKN Flight Activity (FlightAware)

EIKN Gnd/Twr/App
Feed Status: UP   Listeners: 0
Listen in your browser - HTML5 player (in browser, HTML5)
Click here to listen with your own player (launches your MP3 player)
EIKN Gnd/Twr/App Audio Archives
FacilityFrequency
Connaught Ground121.900
Connaught Tower130.700
Shannon Low Level119.075
Special Note: Sponsored by CAC

NOTICE

Unauthorized use prohibited. See LiveATC.net Terms of Service


Find LiveATC Audio Streams


Airport/ARTCC Code

Frequency Search
(e.g., 124.400, 128.75)
Site-wide search
 


Browse LiveATC Feeds
Top 50 LiveATC Feeds
LiveATC Feed Map
Bad Weather Areas

LiveATC FAQ
Offer LiveATC feed
Contact LiveATC.net
Press Inquiries

LiveATC on iPhone
LiveATC on Android

Windows Phone
Windows 8/10

LiveATC Mobile
(Mobile browser)

ATC Audio Archives
Interesting Recordings

LiveATC Forums


Home Page
About LiveATC.net
Make a Donation
Terms of Use
Privacy Policy

Canadian Air Freqs

AIRMETs/SIGMETs

FAA Airport Status
Nat'l Airspace Status
Arrival Demand Charts


Server Software By:
Icecast.org
Liquidsoap